weather.gov     
National Weather Service

Regional Weather Roundup
NWS Homepage
This page is being discontinued on March 12, 2014.
The same data is available at this site. Please update your bookmarks.
Thank you, and we apologize for the inconvenience.
Please send an email to SR-SRH.Webmaster@noaa.gov with any concerns.


Current Version
Previous Version:    01  02  03  04  05  06  07  08  09  10  11  12  13  14  15  16  17  18  19  20  21  22  23  24  25  26  27  28  29  30  
   31  32  33  34  35  36  37  38  39  40  41  42  43  44  45  46  47  48  49  50  51  52  53  
[Printable]
826
ASUS43 KIND 250609
RWRIN

WEATHER ROUNDUP FOR INDIANA
NATIONAL WEATHER SERVICE INDIANAPOLIS IN
200 AM EDT SAT OCT 25 2014

NOTE: "FAIR" INDICATES FEW OR NO CLOUDS BELOW 12,000 FEET WITH NO
SIGNIFICANT WEATHER AND/OR OBSTRUCTIONS TO VISIBILITY.

* - STATION DOES NOT REPORT WEATHER SUCH AS PRECIPITATION OR FOG.

+ - STATION NOT QUALITY CONTROLLED BY THE NATIONAL WEATHER SERVICE.
    USE DATA WITH CAUTION...ESPECIALLY DEWPOINT AND RELATIVE
    HUMIDITY OBSERVATIONS.

INZ001>003-010>013-019-020-250700-
NORTHWEST INDIANA

CITY           SKY/WX    TMP DP  RH WIND       PRES   REMARKS
GARY /AIRPORT/ CLOUDY    60  51  71 CALM      29.93F
KNOX *+        CLOUDY    54  49  83 SW3       29.95F
LA PORTE +     CLOUDY    56  52  86 SW3       29.95F
6HR MIN TEMP:  47; 6HR MAX TEMP:  56;

MICHIGAN CITY+ CLOUDY    55  46  71 SW5       29.94F
MONTICELLO +   CLOUDY    53  51  94 S3        29.96F
RENSSELAER +   CLOUDY    55  54  94 SW8       29.95F
VALPARAISO     CLOUDY    55  50  83 S3        29.95F
6HR MIN TEMP:  50; 6HR MAX TEMP:  57; 6HR PCP: TRACE;


$$

LMZ046-743>745-250700-
SOUTHERN LAKE MICHIGAN

STATION/POSITION TIME  TEMP WIND        PRES
                       AIR  DIR/SP/G
                 (UTC) (F)  (DEG/KT/KT) (MB)
MICHIGAN CITY    0600   58  170/  7/ 11   N/A

$$

INZ004-005-014>016-021>024-250700-
NORTH CENTRAL INDIANA

CITY           SKY/WX    TMP DP  RH WIND       PRES   REMARKS
GOSHEN         CLOUDY    53  50  89 W6        29.95S
6HR MIN TEMP:  47; 6HR MAX TEMP:  55;

LOGANSPORT +   MOCLDY    50  46  87 SW6       29.98R
PERU/GRISSOM   PTCLDY    50  50 100 SW3       29.97S
6HR MIN TEMP:  50; 6HR MAX TEMP:  53;

ROCHESTER +    MOCLDY    55  52  88 SW3       29.97R
SOUTH BEND     CLOUDY    54  48  80 SW8       29.96S
6HR MIN TEMP:  49; 6HR MAX TEMP:  54; 6HR PCP: TRACE;

WARSAW +       MOCLDY    50  50 100 CALM      29.95F

$$

INZ006>009-017-018-025>027-250700-
NORTHEAST INDIANA

CITY           SKY/WX    TMP DP  RH WIND       PRES   REMARKS
ANGOLA *+      MOCLDY    45  43  93 CALM      29.95F VSB 1/2
AUBURN +       PTCLDY    50  48  93 SW3       29.97S FOG
FORT WAYNE     PTCLDY    48  46  93 SW6       29.98S
6HR MIN TEMP:  48; 6HR MAX TEMP:  52;

HUNTINGTON +   PTCLDY   N/A N/A N/A S3        29.97S

$$

INZ028-029-035-036-043>045-051>053-250700-
WEST CENTRAL INDIANA

CITY           SKY/WX    TMP DP  RH WIND       PRES   REMARKS
GREENCASTLE +  PTCLDY    46  46 100 S3        30.01F FOG
LAFAYETTE      CLOUDY    52  51  97 CALM      29.97R
6HR MIN TEMP:  50; 6HR MAX TEMP:  55;

TERRE HAUTE    PTCLDY    48  47  96 CALM      30.00F
6HR MIN TEMP:  48; 6HR MAX TEMP:  56;


$$

INZ030>032-037>040-046>048-054>057-064-065-250700-
CENTRAL INDIANA

CITY           SKY/WX    TMP DP  RH WIND       PRES   REMARKS
CP ATTERBURY + PTCLDY    45  43  93 CALM      30.03S
FRANKFORT +    MOCLDY   N/A N/A N/A S3        30.00S FOG
GREENWOOD *+   MOCLDY    52  46  82 S3        30.01F
INDIANAPOLIS   MOCLDY    50  48  93 S6        29.99F
6HR MIN TEMP:  50; 6HR MAX TEMP:  59;

-EAGLE CREEK   MOCLDY    50  48  93 S3        29.99F
6HR MIN TEMP:  50; 6HR MAX TEMP:  58;

KOKOMO *+      MOCLDY    52  46  82 S6        29.98S
MARION +       MOCLDY    49  46  92 S6        29.98F
MT COMFORT *+  MOCLDY    48 N/A N/A S5        30.01S
SHELBYVILLE    MOCLDY    51  46  83 S6        30.01F
6HR MIN TEMP:  50; 6HR MAX TEMP:  59;

ZIONSVILLE +   MOCLDY    52  48  87 S6        29.99F
6HR MIN TEMP:  48; 6HR MAX TEMP:  55;


$$

INZ033-034-041-042-049-050-058-059-250700-
EAST CENTRAL INDIANA

CITY           SKY/WX    TMP DP  RH WIND       PRES   REMARKS
MUNCIE         PTCLDY    53  48  83 SW6       29.99F
6HR MIN TEMP:  52; 6HR MAX TEMP:  58;


$$

INZ060-061-067>069-081>083-085>088-250700-
SOUTHWEST INDIANA

CITY           SKY/WX    TMP DP  RH WIND       PRES   REMARKS
EVANSVILLE     MOCLDY    53  50  89 SW3       30.05S
6HR MIN TEMP:  52; 6HR MAX TEMP:  61;

HUNTINGBURG *+ PTCLDY    50  46  87 SW3       30.05S
6HR MIN TEMP:  50; 6HR MAX TEMP:  57;

WASHINGTON +   PTCLDY    50  50 100 SE3       30.03S
6HR MIN TEMP:  49; 6HR MAX TEMP:  57;


$$

INZ062-063-066-070>080-084-089>092-250700-
SOUTH CENTRAL AND SOUTHEAST INDIANA

CITY           SKY/WX    TMP DP  RH WIND       PRES   REMARKS
BLOOMINGTON    PTCLDY    49  47  93 CALM      30.03S
6HR MIN TEMP:  47; 6HR MAX TEMP:  54;

NORTH VERNON + PTCLDY    48  48 100 S3        30.04

$$





U.S. Dept. of Commerce
NOAA National Weather Service
1325 East West Highway
Silver Spring, MD 20910
E-mail: w-nws.webmaster@noaa.gov
Page last modified: May 16, 2007
NATIONAL WEATHER SERVICE: for Safety, for Work, for Fun - FOR LIFE